Weather History for Gainesville, GA

Change the Weather History Date:

Thursday, March 1, 2012

  Actual Average Record
Temperature  
Mean Temperature 67 °F 49 °F  
Max Temperature 73 °F 58 °F 78 °F (1932)
Min Temperature 61 °F 39 °F 18 °F (1938)
Degree Days  
Heating Degree Days 0 16  
Month to date heating degree days 16  
Since 1 July heating degree days 2480  
Cooling Degree Days 2    
Growing Degree Days 17 (Base 50)    
Moisture  
Dew Point 54 °F    
Average Humidity 73    
Maximum Humidity 100    
Minimum Humidity 29    
Precipitation  
Precipitation 0.00 in 0.19 in 2.68 in (2007)
Month to date precipitation 0.19  
Year to date precipitation 10.09  
Sea Level Pressure  
Sea Level Pressure 29.90 in    
Wind  
Wind Speed 10 mph (WSW)    
Max Wind Speed 16 mph    
Max Gust Speed 24 mph    
Visibility 10 miles    
Events      
T = Trace of Precipitation, MM = Missing Value Source: NWS Daily Summary

Daily Weather History Graph

Daily Weather History Graph

Search for Another Location

Airport:

Trip Planner

Search our weather history database for the weather conditions in past years. The results will help you decide how hot, cold, wet, or windy it might be!

Date:

Astronomy

Mar. 01, 2012 Rise Set
Actual Time 7:03 AM EST 6:31 PM EST
Civil Twilight 6:38 AM EST 6:57 PM EST
Nautical Twilight 6:09 AM EST 7:26 PM EST
Astronomical Twilight 5:40 AM EST 7:55 PM EST
Moon 12:02 PM EST (3/1) 1:49 AM EST (3/1)
Length of Visible Light 12h 18m
Length of Day
11h 28m
First Quarter, 56% of the Moon is Illuminated
Mar 1
First Quarter
Mar 8
Full
Mar 14
Last Quarter
Mar 22
New
Mar 30
First Quarter

Hourly Weather History & Observations

Time (EST) Temp. Dew Point Humidity Pressure Visibility Wind Dir Wind Speed Gust Speed Precip Events Conditions
12:07 AM 64.4 °F 60.8 °F 88% 29.93 in 10.0 mi SW 9.2 mph 20.7 mph N/A   Mostly Cloudy
12:31 AM 64.4 °F 60.8 °F 88% 29.93 in 10.0 mi WSW 11.5 mph 19.6 mph N/A   Mostly Cloudy
12:53 AM 64.0 °F 61.0 °F 90% 29.91 in 10.0 mi WSW 10.4 mph - N/A   Overcast
1:40 AM 64.4 °F 60.8 °F 88% 29.92 in 10.0 mi WSW 15.0 mph 20.7 mph N/A   Mostly Cloudy
1:53 AM 64.0 °F 61.0 °F 90% 29.90 in 10.0 mi WSW 13.8 mph 20.7 mph N/A   Mostly Cloudy
2:07 AM 64.4 °F 60.8 °F 88% 29.92 in 10.0 mi WSW 13.8 mph - N/A   Mostly Cloudy
2:53 AM 64.0 °F 62.1 °F 93% 29.88 in 10.0 mi WSW 11.5 mph - N/A   Overcast
3:17 AM 62.6 °F 62.6 °F 100% 29.90 in 10.0 mi WSW 11.5 mph - N/A   Overcast
3:50 AM 62.6 °F 60.8 °F 94% 29.90 in 10.0 mi West 10.4 mph 19.6 mph N/A   Overcast
3:53 AM 63.0 °F 61.0 °F 93% 29.87 in 10.0 mi West 9.2 mph - N/A   Mostly Cloudy
4:11 AM 62.6 °F 60.8 °F 94% 29.90 in 10.0 mi West 10.4 mph - N/A   Scattered Clouds
4:53 AM 63.0 °F 61.0 °F 93% 29.87 in 10.0 mi West 9.2 mph - N/A   Partly Cloudy
5:53 AM 62.1 °F 60.1 °F 93% 29.89 in 10.0 mi WSW 6.9 mph - N/A   Partly Cloudy
6:07 AM 62.6 °F 60.8 °F 94% 29.93 in 10.0 mi WSW 9.2 mph - N/A   Mostly Cloudy
6:23 AM 62.6 °F 60.8 °F 94% 29.92 in 10.0 mi West 10.4 mph - N/A   Mostly Cloudy
6:36 AM 62.6 °F 60.8 °F 94% 29.93 in 10.0 mi West 9.2 mph - N/A   Scattered Clouds
6:53 AM 61.0 °F 59.0 °F 93% 29.91 in 9.0 mi WSW 9.2 mph - N/A   Clear
7:53 AM 61.0 °F 59.0 °F 93% 29.92 in 7.0 mi WSW 8.1 mph - N/A   Clear
8:53 AM 62.1 °F 59.0 °F 90% 29.94 in 8.0 mi West 6.9 mph - N/A   Clear
9:53 AM 64.9 °F 52.0 °F 63% 29.94 in 10.0 mi West 11.5 mph - N/A   Partly Cloudy
11:53 AM 70.0 °F 45.0 °F 41% 29.94 in 10.0 mi WSW 11.5 mph - N/A   Clear
12:53 PM 72.0 °F 41.0 °F 33% 29.91 in 10.0 mi West 15.0 mph 24.2 mph N/A   Clear
1:53 PM 73.0 °F 39.0 °F 29% 29.88 in 10.0 mi West 13.8 mph 24.2 mph N/A   Clear
2:53 PM 73.9 °F 42.1 °F 32% 29.86 in 10.0 mi West 13.8 mph 20.7 mph N/A   Clear
3:53 PM 73.9 °F 46.0 °F 37% 29.85 in 10.0 mi West 16.1 mph 20.7 mph N/A   Clear
5:53 PM 72.0 °F 42.1 °F 34% 29.86 in 10.0 mi West 9.2 mph - N/A   Mostly Cloudy
6:53 PM 69.1 °F 42.1 °F 38% 29.87 in 10.0 mi West 4.6 mph - N/A   Clear
7:53 PM 64.9 °F 42.1 °F 43% 29.88 in 10.0 mi Calm Calm - N/A   Clear
8:53 PM 64.0 °F 43.0 °F 46% 29.89 in 10.0 mi SSW 3.5 mph - N/A   Clear
9:53 PM 62.1 °F 44.1 °F 52% 29.89 in 10.0 mi SSW 4.6 mph - N/A   Clear
10:53 PM 63.0 °F 52.0 °F 67% 29.89 in 10.0 mi SW 4.6 mph - N/A   Clear
11:53 PM 61.0 °F 55.0 °F 81% 29.89 in 10.0 mi Calm Calm - N/A   Clear